Location: Cicognara
(44.9500°N, 10.4667°E)
Time: 09:16:08
(UTC+00:00)

ERS-1 Rocket - Pass Details

Date: 20 June 2021
Orbit: 752 x 758 km, 98.4° (Epoch: 04 August)

Event Time Altitude Azimuth Distance (km) Brightness Sun altitude
Exits shadow 20:24:09 14° 141° (SE) 1,998 4.5 -10.8°
Maximum altitude 20:28:14 50° 70° (ENE) 968 3.4 -11.2°
Drops below altitude 10° 20:33:06 10° 356° (N) 2,299 6.4 -11.8°
Sets 20:35:28 0° 352° (N) 3,228 7.4 -12.0°
